• In Uzbekistan
  • List of Countries
  • For 7 days
  • Water Temperature
  • Satellite Maps
  • Weather Map
  • Weather Widgets
  • user-avatar
    Login

    Hourly Weather Campo Grande

    Today, 23 January, Tuesday

    Time Temperature Precipitation Wind Pressure Humidity
    00:00 +25°C° 0 mm 1 mps 708 mmHg 79%
    01:00 +25°C° 0 mm 1 mps 708 mmHg 80%
    02:00 +24°C° 0 mm 1 mps 707 mmHg 80%
    03:00 +24°C° 0 mm 1 mps 708 mmHg 80%
    04:00 +24°C° 0 mm 1 mps 708 mmHg 81%
    05:00 +24°C° 0 mm 1 mps 708 mmHg 81%
    06:00 +26°C° 0.1 mm 1 mps 708 mmHg 77%
    07:00 +27°C° 0.1 mm 2 mps 709 mmHg 73%
    08:00 +29°C° 0.1 mm 2 mps 710 mmHg 69%
    09:00 +30°C° 0.3 mm 2 mps 710 mmHg 64%
    10:00 +31°C° 0.3 mm 2 mps 710 mmHg 58%
    11:00 +34°C° 0.3 mm 3 mps 710 mmHg 53%
    12:00 +34°C° 0 mm 2 mps 709 mmHg 53%
    13:00 +34°C° 0 mm 2 mps 709 mmHg 54%
    14:00 +34°C° 0 mm 2 mps 708 mmHg 54%
    15:00 +34°C° 0 mm 2 mps 708 mmHg 57%
    16:00 +32°C° 0 mm 1 mps 708 mmHg 60%
    17:00 +32°C° 0 mm 1 mps 707 mmHg 62%
    18:00 +30°C° 0 mm 1 mps 707 mmHg 65%
    19:00 +29°C° 0 mm 1 mps 708 mmHg 67%
    20:00 +28°C° 0 mm 1 mps 708 mmHg 69%
    21:00 +27°C° 0 mm 1 mps 708 mmHg 71%
    22:00 +27°C° 0 mm 1 mps 708 mmHg 72%
    23:00 +26°C° 0 mm 1 mps 708 mmHg 74%

    Tomorrow, 24 January, Wednesday

    Time Temperature Precipitation Wind Pressure Humidity
    00:00 +26°C° 0 mm 1 mps 708 mmHg 75%
    01:00 +26°C° 0 mm 1 mps 708 mmHg 76%
    02:00 +25°C° 0 mm 1 mps 708 mmHg 78%
    03:00 +25°C° 0 mm 1 mps 708 mmHg 78%
    04:00 +25°C° 0 mm 1 mps 708 mmHg 79%
    05:00 +25°C° 0 mm 1 mps 708 mmHg 79%
    06:00 +26°C° 0.1 mm 2 mps 709 mmHg 76%
    07:00 +28°C° 0.1 mm 2 mps 709 mmHg 72%
    08:00 +30°C° 0.1 mm 2 mps 710 mmHg 68%
    09:00 +31°C° 0.3 mm 2 mps 710 mmHg 63%
    10:00 +32°C° 0.3 mm 2 mps 710 mmHg 57%
    11:00 +34°C° 0.3 mm 3 mps 710 mmHg 51%
    12:00 +35°C° 0 mm 2 mps 710 mmHg 51%
    13:00 +35°C° 0 mm 2 mps 709 mmHg 51%
    14:00 +35°C° 0 mm 2 mps 709 mmHg 51%
    15:00 +33°C° 0 mm 1 mps 708 mmHg 55%
    16:00 +32°C° 0 mm 1 mps 708 mmHg 59%
    17:00 +32°C° 0 mm 1 mps 707 mmHg 63%
    18:00 +31°C° 0 mm 1 mps 708 mmHg 64%
    19:00 +27°C° 0 mm 0 mps 708 mmHg 66%
    20:00 +26°C° 0 mm 0 mps 708 mmHg 68%
    21:00 +26°C° 0 mm 0 mps 708 mmHg 69%
    22:00 +27°C° 0 mm 1 mps 708 mmHg 70%
    23:00 +27°C° 0 mm 1 mps 709 mmHg 72%

    Day after tomorrow, 25 January, Thursday

    Time Temperature Precipitation Wind Pressure Humidity
    00:00 +27°C° 0 mm 1 mps 708 mmHg 73%
    01:00 +26°C° 0 mm 1 mps 708 mmHg 75%
    02:00 +26°C° 0 mm 1 mps 707 mmHg 76%
    03:00 +26°C° 0 mm 1 mps 707 mmHg 77%
    04:00 +25°C° 0 mm 1 mps 707 mmHg 79%
    05:00 +25°C° 0 mm 1 mps 707 mmHg 80%
    06:00 +27°C° 0.2 mm 1 mps 708 mmHg 77%
    07:00 +28°C° 0.2 mm 2 mps 709 mmHg 74%
    08:00 +30°C° 0.2 mm 2 mps 709 mmHg 71%
    09:00 +31°C° 1.1 mm 2 mps 709 mmHg 66%
    10:00 +32°C° 1.1 mm 2 mps 709 mmHg 61%
    11:00 +34°C° 1.1 mm 2 mps 709 mmHg 56%
    12:00 +34°C° 0 mm 2 mps 709 mmHg 55%
    13:00 +35°C° 0 mm 2 mps 708 mmHg 53%
    14:00 +35°C° 0 mm 2 mps 708 mmHg 52%
    15:00 +34°C° 0.5 mm 2 mps 707 mmHg 57%
    16:00 +32°C° 0.5 mm 2 mps 707 mmHg 63%
    17:00 +31°C° 0.5 mm 2 mps 707 mmHg 68%
    18:00 +29°C° 0.5 mm 2 mps 707 mmHg 73%
    19:00 +28°C° 0.5 mm 2 mps 707 mmHg 79%
    20:00 +26°C° 0.5 mm 2 mps 707 mmHg 84%
    21:00 +26°C° 0.1 mm 2 mps 707 mmHg 85%
    22:00 +26°C° 0.1 mm 2 mps 707 mmHg 85%
    23:00 +25°C° 0.1 mm 2 mps 707 mmHg 86%

    26 January, Friday

    Time Temperature Precipitation Wind Pressure Humidity
    00:00 +25°C° 0 mm 1 mps 706 mmHg 86%
    01:00 +25°C° 0 mm 1 mps 706 mmHg 86%
    02:00 +25°C° 0 mm 1 mps 705 mmHg 86%
    03:00 +24°C° 0 mm 1 mps 706 mmHg 86%
    04:00 +24°C° 0 mm 1 mps 706 mmHg 87%
    05:00 +24°C° 0 mm 1 mps 706 mmHg 87%
    06:00 +25°C° 0 mm 1 mps 707 mmHg 83%
    07:00 +27°C° 0 mm 2 mps 707 mmHg 79%
    08:00 +28°C° 0 mm 2 mps 708 mmHg 75%
    09:00 +30°C° 0.1 mm 2 mps 708 mmHg 69%
    10:00 +31°C° 0.1 mm 1 mps 708 mmHg 63%
    11:00 +33°C° 0.1 mm 1 mps 708 mmHg 56%
    12:00 +33°C° 0.9 mm 1 mps 707 mmHg 56%
    13:00 +33°C° 0.9 mm 1 mps 706 mmHg 55%
    14:00 +34°C° 0.9 mm 1 mps 706 mmHg 54%
    15:00 +33°C° 2.1 mm 1 mps 705 mmHg 60%
    16:00 +32°C° 2.1 mm 1 mps 705 mmHg 66%
    17:00 +31°C° 2.1 mm 1 mps 705 mmHg 71%
    18:00 +29°C° 0.5 mm 1 mps 705 mmHg 75%
    19:00 +28°C° 0.5 mm 1 mps 705 mmHg 78%
    20:00 +27°C° 0.5 mm 1 mps 705 mmHg 81%
    21:00 +26°C° 0.1 mm 1 mps 706 mmHg 81%
    22:00 +24°C° 0.1 mm 0 mps 706 mmHg 82%
    23:00 +24°C° 0.1 mm 0 mps 706 mmHg 82%

    27 January, Saturday

    Time Temperature Precipitation Wind Pressure Humidity
    00:00 +26°C° 0.2 mm 1 mps 705 mmHg 84%
    01:00 +25°C° 0.2 mm 1 mps 705 mmHg 85%
    02:00 +25°C° 0.2 mm 1 mps 705 mmHg 87%
    03:00 +25°C° 0.2 mm 1 mps 705 mmHg 88%
    04:00 +25°C° 0.2 mm 1 mps 705 mmHg 89%
    05:00 +25°C° 0.2 mm 2 mps 705 mmHg 90%
    06:00 +26°C° 0 mm 2 mps 706 mmHg 87%
    07:00 +27°C° 0 mm 2 mps 706 mmHg 83%
    08:00 +28°C° 0 mm 3 mps 707 mmHg 80%
    09:00 +29°C° 0.8 mm 3 mps 707 mmHg 75%
    10:00 +30°C° 0.8 mm 2 mps 707 mmHg 69%
    11:00 +32°C° 0.8 mm 2 mps 706 mmHg 64%
    12:00 +32°C° 1.4 mm 2 mps 706 mmHg 64%
    13:00 +32°C° 1.4 mm 2 mps 705 mmHg 65%
    14:00 +32°C° 1.4 mm 2 mps 705 mmHg 65%
    15:00 +30°C° 2 mm 2 mps 705 mmHg 71%
    16:00 +29°C° 2 mm 2 mps 704 mmHg 77%
    17:00 +28°C° 2 mm 1 mps 704 mmHg 83%
    18:00 +28°C° 0.1 mm 1 mps 704 mmHg 85%
    19:00 +27°C° 0.1 mm 1 mps 705 mmHg 86%
    20:00 +24°C° 0.1 mm 0 mps 705 mmHg 88%
    21:00 +26°C° 0 mm 1 mps 705 mmHg 88%
    22:00 +25°C° 0 mm 1 mps 705 mmHg 88%
    23:00 +25°C° 0 mm 1 mps 705 mmHg 88%

    28 January, Sunday

    Time Temperature Precipitation Wind Pressure Humidity
    00:00 +23°C° 0 mm 0 mps 704 mmHg 88%
    01:00 +23°C° 0 mm 0 mps 704 mmHg 87%
    02:00 +23°C° 0 mm 0 mps 704 mmHg 87%
    03:00 +22°C° 0 mm 0 mps 704 mmHg 87%
    04:00 +24°C° 0 mm 1 mps 704 mmHg 87%
    05:00 +24°C° 0 mm 1 mps 704 mmHg 87%
    06:00 +26°C° 0 mm 1 mps 705 mmHg 83%
    07:00 +27°C° 0 mm 1 mps 706 mmHg 79%
    08:00 +28°C° 0 mm 2 mps 706 mmHg 75%
    09:00 +29°C° 0.4 mm 2 mps 706 mmHg 72%
    10:00 +30°C° 0.4 mm 3 mps 706 mmHg 68%
    11:00 +31°C° 0.4 mm 3 mps 706 mmHg 64%
    12:00 +32°C° 1.1 mm 4 mps 706 mmHg 65%
    13:00 +32°C° 1.1 mm 4 mps 705 mmHg 65%
    14:00 +33°C° 1.1 mm 4 mps 705 mmHg 66%
    15:00 +31°C° 0.3 mm 3 mps 705 mmHg 68%
    16:00 +31°C° 0.3 mm 3 mps 704 mmHg 70%
    17:00 +30°C° 0.3 mm 2 mps 704 mmHg 73%
    18:00 +29°C° 1.4 mm 2 mps 704 mmHg 78%
    19:00 +27°C° 1.4 mm 2 mps 704 mmHg 82%
    20:00 +26°C° 1.4 mm 2 mps 704 mmHg 87%
    21:00 +26°C° 1.5 mm 1 mps 705 mmHg 88%
    22:00 +26°C° 1.5 mm 1 mps 705 mmHg 88%
    23:00 +25°C° 1.5 mm 1 mps 705 mmHg 89%
    Show more